| time (UTC) | temp C | wind direction | speed KPH | gust KPH | rain 1hr cm | rain 24hr cm | rain mn cm | humidity % | barometer mb |
| 20260904203003 | 27 | 133 | 0.0 | 1.6 | 0.03 | 1.02 | 0.99 | 87 | 1011.2 |
| 20260904201502 | 27 | 50 | 0.0 | 1.6 | 0.30 | 1.02 | 0.99 | 94 | 1011.5 |
| 20260904200006 | 26 | 50 | 0.0 | 3.2 | 0.94 | 1.27 | 0.99 | 93 | 1011.5 |
| 20260904194502 | 26 | 327 | 0.0 | 0.0 | 0.99 | 1.27 | 0.99 | 94 | 1011.7 |
| 20260904193002 | 25 | 40 | 0.0 | 6.4 | 0.97 | 1.24 | 0.97 | 91 | 1011.9 |
| 20260904191558 | 25 | 215 | 1.6 | 12.9 | 0.71 | 0.99 | 0.71 | 84 | 1012.2 |
| 20260904190055 | 28 | 143 | 1.6 | 9.7 | 0.05 | 0.33 | 0.05 | 82 | 1012.6 |
| 20260904184558 | 31 | 67 | 0.0 | 0.0 | 0.00 | 0.28 | 0.00 | 76 | 1012.3 |
| 20260904183113 | 32 | 310 | 1.6 | 8.0 | 0.00 | 0.28 | 0.00 | 74 | 1012.3 |
| 20260904181551 | 31 | 81 | 0.0 | 4.8 | 0.00 | 0.28 | 0.00 | 73 | 1012.5 |
| 20260904180114 | 32 | 72 | 3.2 | 11.3 | 0.00 | 0.28 | 0.00 | 73 | 1012.7 |
| 20260904174557 | 32 | 71 | 1.6 | 12.9 | 0.00 | 0.28 | 0.00 | 73 | 1012.9 |
| 20260904173047 | 31 | 176 | 0.0 | 4.8 | 0.00 | 0.28 | 0.00 | 74 | 1013.0 |
| 20260904171546 | 31 | 257 | 0.0 | 3.2 | 0.00 | 0.28 | 0.00 | 78 | 1013.0 |
| 20260904170046 | 30 | 111 | 0.0 | 6.4 | 0.00 | 0.28 | 0.00 | 79 | 1013.1 |
| 20260904164535 | 29 | 171 | 0.0 | 0.0 | 0.00 | 0.28 | 0.00 | 81 | 1013.3 |
| 20260904163031 | 28 | 163 | 0.0 | 1.6 | 0.00 | 0.28 | 0.00 | 81 | 1013.3 |
| 20260904161530 | 28 | 168 | 0.0 | 3.2 | 0.00 | 0.28 | 0.00 | 81 | 1013.4 |
| 20260904160026 | 28 | 75 | 0.0 | 8.0 | 0.00 | 0.28 | 0.00 | 82 | 1013.2 |
| 20260904154528 | 28 | 118 | 0.0 | 6.4 | 0.00 | 0.28 | 0.00 | 83 | 1013.2 |
| 20260904153025 | 28 | 105 | 0.0 | 4.8 | 0.00 | 0.28 | 0.00 | 86 | 1013.2 |
| 20260904151521 | 28 | 131 | 0.0 | 6.4 | 0.00 | 0.28 | 0.00 | 86 | 1012.8 |
| 20260904150028 | 28 | 88 | 0.0 | 4.8 | 0.00 | 0.28 | 0.00 | 87 | 1012.7 |
| 20260904144516 | 28 | 129 | 3.2 | 16.1 | 0.00 | 0.28 | 0.00 | 87 | 1012.7 |
| 20260904143012 | 28 | 128 | 1.6 | 6.4 | 0.00 | 0.28 | 0.00 | 88 | 1012.6 |
| 20260904141516 | 28 | 79 | 0.0 | 1.6 | 0.00 | 0.28 | 0.00 | 88 | 1012.4 |
| 20260904140021 | 27 | 79 | 0.0 | 0.0 | 0.00 | 0.28 | 0.00 | 89 | 1012.4 |
| 20260904134507 | 27 | 79 | 0.0 | 4.8 | 0.00 | 0.28 | 0.00 | 92 | 1012.2 |
| 20260904133007 | 27 | 73 | 0.0 | 6.4 | 0.00 | 0.28 | 0.00 | 93 | 1012.2 |
| 20260904131502 | 27 | 55 | 1.6 | 4.8 | 0.00 | 0.28 | 0.00 | 93 | 1012.1 |
| 20260904130002 | 27 | 76 | 0.0 | 0.0 | 0.00 | 0.28 | 0.00 | 93 | 1012.0 |
| 20260904124609 | 26 | 76 | 0.0 | 0.0 | 0.00 | 0.28 | 0.00 | 93 | 1011.9 |
| 20260904123056 | 26 | 76 | 0.0 | 0.0 | 0.00 | 0.28 | 0.00 | 93 | 1011.6 |
| 20260904121554 | 27 | 76 | 0.0 | 0.0 | 0.00 | 0.28 | 0.00 | 93 | 1011.3 |
| 20260904120104 | 26 | 76 | 0.0 | 0.0 | 0.00 | 0.28 | 0.00 | 93 | 1011.3 |
| 20260904114552 | 26 | 76 | 0.0 | 0.0 | 0.00 | 0.28 | 0.00 | 92 | 1011.3 |
| 20260904113053 | 26 | 76 | 0.0 | 0.0 | 0.00 | 0.28 | 0.00 | 92 | 1011.2 |
| 20260904111548 | 26 | 76 | 0.0 | 0.0 | 0.00 | 0.28 | 0.00 | 92 | 1011.3 |
| 20260904110047 | 26 | 76 | 0.0 | 0.0 | 0.00 | 0.28 | 0.00 | 92 | 1011.2 |
| 20260904104547 | 26 | 114 | 0.0 | 0.0 | 0.00 | 0.28 | 0.00 | 92 | 1011.3 |
| 20260904103044 | 27 | 114 | 0.0 | 0.0 | 0.00 | 0.28 | 0.00 | 91 | 1011.0 |
| 20260904101548 | 27 | 114 | 0.0 | 0.0 | 0.00 | 0.28 | 0.00 | 91 | 1010.9 |
| 20260904100045 | 27 | 114 | 0.0 | 0.0 | 0.00 | 0.28 | 0.00 | 91 | 1010.8 |
| 20260904094547 | 27 | 114 | 0.0 | 3.2 | 0.00 | 0.28 | 0.00 | 91 | 1010.8 |
| 20260904093046 | 27 | 200 | 0.0 | 0.0 | 0.00 | 0.28 | 0.00 | 91 | 1010.6 |
| 20260904091541 | 27 | 200 | 0.0 | 0.0 | 0.00 | 0.28 | 0.00 | 91 | 1010.6 |
| 20260904090042 | 27 | 200 | 0.0 | 0.0 | 0.00 | 0.28 | 0.00 | 90 | 1010.5 |
| 20260904084540 | 27 | 200 | 0.0 | 0.0 | 0.00 | 0.28 | 0.00 | 90 | 1010.5 |
| 20260904083038 | 27 | 200 | 0.0 | 0.0 | 0.00 | 0.28 | 0.00 | 90 | 1010.6 |
| 20260904081537 | 27 | 200 | 0.0 | 1.6 | 0.00 | 0.28 | 0.00 | 89 | 1010.6 |
| 20260904080036 | 27 | 200 | 0.0 | 1.6 | 0.00 | 0.28 | 0.00 | 89 | 1010.7 |
| 20260904074534 | 27 | 200 | 0.0 | 1.6 | 0.00 | 0.28 | 0.00 | 89 | 1010.7 |
| 20260904073035 | 27 | 200 | 0.0 | 0.0 | 0.00 | 0.28 | 0.00 | 88 | 1010.7 |
| 20260904071532 | 27 | 200 | 0.0 | 0.0 | 0.00 | 0.28 | 0.00 | 88 | 1010.7 |
| 20260904070033 | 27 | 230 | 0.0 | 1.6 | 0.00 | 0.28 | 0.00 | 88 | 1010.8 |
| 20260904064538 | 27 | 236 | 0.0 | 1.6 | 0.00 | 0.28 | 0.00 | 88 | 1010.9 |
| 20260904063031 | 27 | 214 | 0.0 | 3.2 | 0.00 | 0.28 | 0.00 | 87 | 1010.8 |
| 20260904061536 | 27 | 223 | 0.0 | 1.6 | 0.00 | 0.28 | 0.00 | 87 | 1010.9 |
| 20260904060046 | 28 | 231 | 0.0 | 0.0 | 0.00 | 0.28 | 0.00 | 87 | 1011.0 |
| 20260904054539 | 28 | 221 | 0.0 | 0.0 | 0.00 | 0.28 | 0.00 | 88 | 1011.0 |
| 20260904053033 | 27 | 175 | 0.0 | 0.0 | 0.00 | 0.28 | 0.00 | 88 | 1010.9 |
| 20260904051525 | 27 | 126 | 0.0 | 0.0 | 0.00 | 0.28 | 0.00 | 89 | 1011.0 |
| 20260904050037 | 28 | 126 | 0.0 | 0.0 | 0.00 | 0.28 | 0.00 | 89 | 1011.1 |
| 20260904044527 | 28 | 126 | 0.0 | 0.0 | 0.00 | 0.28 | 0.28 | 89 | 1011.1 |
| 20260904043021 | 28 | 126 | 0.0 | 0.0 | 0.00 | 0.28 | 0.28 | 88 | 1011.1 |
| 20260904041524 | 28 | 115 | 0.0 | 0.0 | 0.00 | 0.28 | 0.28 | 88 | 1011.1 |
| 20260904040036 | 28 | 115 | 0.0 | 0.0 | 0.00 | 0.28 | 0.28 | 88 | 1011.2 |
| 20260904034521 | 28 | 104 | 0.0 | 0.0 | 0.00 | 0.28 | 0.28 | 87 | 1011.1 |
| 20260904033021 | 28 | 104 | 0.0 | 0.0 | 0.00 | 0.28 | 0.28 | 87 | 1011.2 |
| 20260904031522 | 28 | 104 | 0.0 | 0.0 | 0.00 | 0.28 | 0.28 | 87 | 1011.3 |
| 20260904030019 | 28 | 104 | 0.0 | 0.0 | 0.00 | 0.28 | 0.28 | 87 | 1011.2 |
| 20260904024518 | 28 | 84 | 0.0 | 0.0 | 0.00 | 0.28 | 0.28 | 87 | 1011.3 |
| 20260904023020 | 28 | 84 | 0.0 | 0.0 | 0.00 | 0.28 | 0.28 | 87 | 1011.1 |
| 20260904021618 | 28 | 84 | 0.0 | 0.0 | 0.00 | 0.28 | 0.28 | 87 | 1010.8 |
| 20260904020016 | 28 | 84 | 0.0 | 0.0 | 0.00 | 0.28 | 0.28 | 87 | 1010.8 |
| 20260904014516 | 28 | 84 | 0.0 | 0.0 | 0.00 | 0.28 | 0.28 | 86 | 1010.5 |
| 20260904013015 | 28 | 84 | 0.0 | 0.0 | 0.00 | 0.28 | 0.28 | 85 | 1010.4 |
| 20260904011514 | 28 | 84 | 0.0 | 0.0 | 0.00 | 0.28 | 0.28 | 85 | 1010.4 |
| 20260904010014 | 28 | 84 | 0.0 | 0.0 | 0.00 | 0.28 | 0.28 | 84 | 1010.3 |
| 20260904004519 | 29 | 84 | 0.0 | 0.0 | 0.00 | 0.28 | 0.28 | 84 | 1010.2 |
| 20260904003022 | 29 | 142 | 0.0 | 0.0 | 0.00 | 0.28 | 0.28 | 83 | 1010.3 |
| 20260904001512 | 29 | 142 | 0.0 | 0.0 | 0.00 | 0.28 | 0.28 | 83 | 1010.4 |
| 20260904000013 | 29 | 162 | 0.0 | 3.2 | 0.00 | 0.28 | 0.28 | 83 | 1010.4 |
| 20260903234512 | 29 | 158 | 0.0 | 3.2 | 0.00 | 0.28 | 0.28 | 84 | 1010.5 |
| 20260903233018 | 29 | 121 | 1.6 | 4.8 | 0.00 | 0.28 | 0.28 | 83 | 1010.3 |
| 20260903231513 | 29 | 145 | 0.0 | 3.2 | 0.00 | 0.28 | 0.28 | 83 | 1010.3 |
| 20260903230011 | 29 | 130 | 0.0 | 3.2 | 0.00 | 0.28 | 0.28 | 83 | 1010.3 |
| 20260903224516 | 30 | 137 | 0.0 | 4.8 | 0.00 | 0.28 | 0.28 | 83 | 1010.5 |
| 20260903223011 | 30 | 138 | 1.6 | 3.2 | 0.00 | 0.28 | 0.28 | 83 | 1010.6 |
| 20260903221507 | 30 | 73 | 0.0 | 4.8 | 0.00 | 0.28 | 0.28 | 84 | 1010.6 |
| 20260903220008 | 29 | 101 | 1.6 | 11.3 | 0.00 | 0.28 | 0.28 | 85 | 1010.7 |
| 20260903214506 | 29 | 81 | 3.2 | 11.3 | 0.00 | 0.28 | 0.28 | 85 | 1010.9 |
| 20260903213003 | 29 | 97 | 0.0 | 6.4 | 0.00 | 0.28 | 0.28 | 86 | 1011.5 |
| 20260903211502 | 28 | 84 | 0.0 | 14.5 | 0.00 | 0.28 | 0.28 | 87 | 1011.4 |
| 20260903210002 | 28 | 108 | 3.2 | 9.7 | 0.03 | 0.28 | 0.28 | 89 | 1011.4 |
| 20260903204502 | 28 | 80 | 3.2 | 11.3 | 0.08 | 0.28 | 0.28 | 91 | 1011.4 |